SIA11 KLAX-RJAA

Flight info

Callsign SIA11
Flight time N/A
Altitude 32000
Route SUMMR2 MCKEY DCT LIBBO DCT BRINY DCT BOARS DCT AMAKR DCT REDWD DCT TRYSH DCT GAPNE/N0488F340 DCT 43N140W 46N150W 47N160W 47N170W 45N180E/N0488F360 41N170E 38N160E 36N150E/N0483F380 SEALS OTR13 LAPIL Y811 POROT Y809 SUPOK
Aircraft B77W/H-SDE1E2E3FGHIJ4J5M1P2RWXYZ/LB1D1

Departure

Time N/A
Airport Los Angeles International Airport (KLAX)

Arrival

Time 2026-05-05 14:41
Airport Narita International Airport (RJAA)
Time Latitude Longitude Altitude Speed Heading
2026-05-05 11:56 38.01112 160.03026 36129 ft 416 kts 246°
2026-05-05 11:56 38.00149 159.99557 36130 ft 417 kts 250°
2026-05-05 11:56 37.98788 159.92387 36132 ft 419 kts 255°
2026-05-05 11:57 37.97685 159.85132 36134 ft 419 kts 255°
2026-05-05 11:57 37.96574 159.77891 36131 ft 418 kts 255°
2026-05-05 11:58 37.95454 159.70667 36128 ft 417 kts 255°
2026-05-05 11:58 37.94328 159.63459 36127 ft 417 kts 255°
2026-05-05 11:59 37.93198 159.56264 36128 ft 416 kts 255°
2026-05-05 11:59 37.92065 159.49074 36140 ft 416 kts 255°
2026-05-05 12:00 37.90928 159.41891 36130 ft 416 kts 255°
2026-05-05 12:00 37.89788 159.34718 36132 ft 415 kts 255°
2026-05-05 12:01 37.88643 159.27546 36133 ft 415 kts 255°
2026-05-05 12:01 37.87495 159.20381 36133 ft 415 kts 255°
2026-05-05 12:02 37.86343 159.13221 36124 ft 415 kts 254°
2026-05-05 12:02 37.85185 159.06059 36124 ft 415 kts 254°
2026-05-05 12:03 37.84025 158.98908 36143 ft 415 kts 254°
2026-05-05 12:03 37.82862 158.91764 36140 ft 414 kts 254°
2026-05-05 12:04 37.81695 158.84627 36155 ft 414 kts 254°
2026-05-05 12:04 37.80524 158.77498 36137 ft 414 kts 254°
2026-05-05 12:05 37.79352 158.70384 36145 ft 413 kts 254°
2026-05-05 12:05 37.78176 158.63281 36143 ft 412 kts 254°
2026-05-05 12:06 37.76998 158.56193 36148 ft 412 kts 254°
2026-05-05 12:06 37.75817 158.49108 36150 ft 412 kts 254°
2026-05-05 12:07 37.74639 158.42075 36155 ft 412 kts 253°
2026-05-05 12:07 37.73441 158.34952 36155 ft 412 kts 253°
2026-05-05 12:08 37.72255 158.27925 36155 ft 412 kts 253°
2026-05-05 12:08 37.71056 158.20845 36165 ft 412 kts 253°
2026-05-05 12:09 37.69854 158.13774 36163 ft 411 kts 253°
2026-05-05 12:09 37.68651 158.06727 36157 ft 410 kts 253°
2026-05-05 12:10 37.67446 157.99696 36157 ft 409 kts 253°
2026-05-05 12:10 37.66241 157.92688 36160 ft 408 kts 253°
2026-05-05 12:11 37.65033 157.85692 36170 ft 408 kts 253°
2026-05-05 12:11 37.64028 157.79892 36169 ft 407 kts 253°
2026-05-05 12:12 37.62816 157.72923 36166 ft 406 kts 253°
2026-05-05 12:12 37.61602 157.65966 36169 ft 406 kts 253°
2026-05-05 12:13 37.60386 157.59018 36169 ft 406 kts 253°
2026-05-05 12:13 37.59164 157.52068 36184 ft 406 kts 253°
2026-05-05 12:14 37.57939 157.45126 36172 ft 405 kts 253°
2026-05-05 12:14 37.56713 157.38198 36178 ft 405 kts 253°
2026-05-05 12:15 37.55482 157.31272 36178 ft 405 kts 253°
2026-05-05 12:15 37.54248 157.24356 36188 ft 404 kts 253°
2026-05-05 12:16 37.53015 157.17464 36192 ft 402 kts 253°
2026-05-05 12:16 37.51784 157.10606 36184 ft 400 kts 253°
2026-05-05 12:17 37.50555 157.03789 36185 ft 398 kts 253°
2026-05-05 12:17 37.49328 156.97005 36191 ft 397 kts 253°
2026-05-05 12:18 37.48097 156.90226 36194 ft 397 kts 253°
2026-05-05 12:18 37.46864 156.83457 36195 ft 397 kts 253°
2026-05-05 12:19 37.45626 156.76688 36193 ft 397 kts 253°
2026-05-05 12:19 37.44384 156.69916 36196 ft 397 kts 253°
2026-05-05 12:20 37.43137 156.63142 36201 ft 398 kts 253°
2026-05-05 12:20 37.41885 156.56365 36209 ft 398 kts 253°
2026-05-05 12:21 37.40629 156.49586 36212 ft 398 kts 253°
2026-05-05 12:21 37.39369 156.42806 36207 ft 398 kts 253°
2026-05-05 12:22 37.38113 156.36077 36207 ft 398 kts 253°
2026-05-05 12:22 37.36847 156.29311 36206 ft 398 kts 253°
2026-05-05 12:23 37.35576 156.22544 36226 ft 398 kts 253°
2026-05-05 12:23 37.34302 156.15784 36215 ft 397 kts 253°
2026-05-05 12:24 37.33026 156.09040 36218 ft 397 kts 253°
2026-05-05 12:24 37.31748 156.02303 36211 ft 396 kts 253°
2026-05-05 12:25 37.30468 155.95579 36217 ft 396 kts 253°
2026-05-05 12:25 37.29825 155.92210 36323 ft 398 kts 253°
2026-05-05 12:25 37.29179 155.88832 36635 ft 396 kts 253°
2026-05-05 12:26 37.28537 155.85479 36993 ft 394 kts 253°
2026-05-05 12:26 37.27898 155.82141 37325 ft 392 kts 253°
2026-05-05 12:26 37.27260 155.78819 37620 ft 391 kts 253°
2026-05-05 12:26 37.26622 155.75501 37870 ft 391 kts 253°
2026-05-05 12:27 37.25983 155.72186 38109 ft 391 kts 253°
2026-05-05 12:27 37.25340 155.68860 38149 ft 393 kts 253°
2026-05-05 12:27 37.24054 155.62212 38214 ft 390 kts 253°
2026-05-05 12:28 37.22780 155.55648 38231 ft 384 kts 253°
2026-05-05 12:28 37.21520 155.49175 38224 ft 380 kts 253°
2026-05-05 12:29 37.20265 155.42752 38233 ft 379 kts 253°
2026-05-05 12:29 37.19004 155.36323 38234 ft 381 kts 253°
2026-05-05 12:30 37.17733 155.29861 38237 ft 383 kts 253°
2026-05-05 12:30 37.16449 155.23350 38243 ft 386 kts 253°
2026-05-05 12:31 37.15155 155.16805 38238 ft 388 kts 253°
2026-05-05 12:31 37.13860 155.10279 38237 ft 389 kts 253°
2026-05-05 12:32 37.12549 155.03690 38236 ft 390 kts 253°
2026-05-05 12:32 37.11235 154.97106 38252 ft 389 kts 254°
2026-05-05 12:33 37.09920 154.90539 38238 ft 387 kts 254°
2026-05-05 12:33 37.08610 154.84017 38243 ft 385 kts 254°
2026-05-05 12:34 37.07304 154.77534 38240 ft 383 kts 254°
2026-05-05 12:34 37.06000 154.71083 38247 ft 382 kts 254°
2026-05-05 12:35 37.04697 154.64655 38256 ft 381 kts 254°
2026-05-05 12:35 37.03391 154.58235 38247 ft 380 kts 254°
2026-05-05 12:36 37.02085 154.51828 38252 ft 380 kts 254°
2026-05-05 12:36 37.00774 154.45418 38255 ft 380 kts 254°
2026-05-05 12:37 36.99458 154.39006 38256 ft 381 kts 254°
2026-05-05 12:37 36.98138 154.32591 38268 ft 381 kts 255°
2026-05-05 12:38 36.96813 154.26173 38255 ft 381 kts 255°
2026-05-05 12:38 36.95487 154.19762 38261 ft 380 kts 255°
2026-05-05 12:39 36.94159 154.13365 38261 ft 380 kts 255°
2026-05-05 12:39 36.92838 154.07022 38263 ft 380 kts 255°
2026-05-05 12:40 36.91505 154.00641 38269 ft 379 kts 255°
2026-05-05 12:40 36.90173 153.94278 38265 ft 378 kts 255°
2026-05-05 12:41 36.88840 153.87928 38266 ft 377 kts 255°
2026-05-05 12:41 36.87506 153.81598 38266 ft 377 kts 255°
2026-05-05 12:42 36.86170 153.75272 38270 ft 377 kts 255°
2026-05-05 12:42 36.84831 153.68953 38273 ft 376 kts 255°
2026-05-05 12:43 36.83491 153.62645 38271 ft 376 kts 255°
2026-05-05 12:43 36.82149 153.56344 38272 ft 376 kts 255°
2026-05-05 12:44 36.80804 153.50048 38275 ft 375 kts 255°
2026-05-05 12:44 36.79456 153.43755 38277 ft 375 kts 255°
2026-05-05 12:45 36.78104 153.37464 38276 ft 376 kts 255°
2026-05-05 12:45 36.76748 153.31170 38278 ft 376 kts 255°
2026-05-05 12:46 36.75389 153.24880 38280 ft 376 kts 255°
2026-05-05 12:46 36.74027 153.18590 38281 ft 376 kts 255°
2026-05-05 12:47 36.72661 153.12304 38290 ft 376 kts 255°
2026-05-05 12:47 36.71300 153.06057 38280 ft 376 kts 255°
2026-05-05 12:48 36.69927 152.99771 38282 ft 376 kts 255°
2026-05-05 12:48 36.68550 152.93488 38283 ft 376 kts 255°
2026-05-05 12:49 36.67170 152.87204 38291 ft 376 kts 255°
2026-05-05 12:49 36.65785 152.80919 38287 ft 376 kts 255°
2026-05-05 12:50 36.64398 152.74640 38296 ft 376 kts 255°
2026-05-05 12:50 36.63007 152.68359 38295 ft 376 kts 255°
2026-05-05 12:51 36.61613 152.62081 38300 ft 376 kts 255°
2026-05-05 12:51 36.60215 152.55802 38297 ft 376 kts 255°
2026-05-05 12:52 36.58813 152.49523 38297 ft 377 kts 254°
2026-05-05 12:52 36.57406 152.43242 38299 ft 377 kts 254°
2026-05-05 12:53 36.55997 152.36963 38301 ft 377 kts 254°
2026-05-05 12:53 36.54584 152.30688 38302 ft 377 kts 254°
2026-05-05 12:54 36.52457 152.21272 38304 ft 377 kts 254°
2026-05-05 12:55 36.51035 152.14998 38307 ft 377 kts 254°
2026-05-05 12:55 36.49610 152.08724 38307 ft 377 kts 254°
2026-05-05 12:56 36.48190 152.02493 38305 ft 377 kts 254°
2026-05-05 12:56 36.46749 151.96186 38304 ft 377 kts 254°
2026-05-05 12:57 36.45314 151.89921 38298 ft 377 kts 253°
2026-05-05 12:57 36.43885 151.83697 38305 ft 377 kts 253°
2026-05-05 12:58 36.42441 151.77430 38307 ft 377 kts 253°
2026-05-05 12:58 36.40994 151.71163 38307 ft 378 kts 253°
2026-05-05 12:59 36.39544 151.64898 38310 ft 378 kts 253°
2026-05-05 12:59 36.38091 151.58636 38311 ft 378 kts 253°
2026-05-05 13:00 36.36151 151.50304 38315 ft 377 kts 253°
2026-05-05 13:01 36.33228 151.37803 38315 ft 377 kts 253°
2026-05-05 13:01 36.31763 151.31562 38310 ft 377 kts 253°
2026-05-05 13:02 36.30296 151.25327 38316 ft 377 kts 253°
2026-05-05 13:02 36.28826 151.19096 38315 ft 376 kts 253°
2026-05-05 13:03 36.27353 151.12873 38315 ft 376 kts 253°
2026-05-05 13:03 36.25878 151.06650 38318 ft 376 kts 253°
2026-05-05 13:04 36.24400 151.00434 38319 ft 376 kts 253°
2026-05-05 13:04 36.22919 150.94223 38317 ft 376 kts 253°
2026-05-05 13:05 36.21436 150.88018 38318 ft 376 kts 253°
2026-05-05 13:05 36.19950 150.81813 38321 ft 376 kts 253°
2026-05-05 13:06 36.18461 150.75614 38321 ft 376 kts 253°
2026-05-05 13:06 36.16969 150.69419 38319 ft 376 kts 253°
2026-05-05 13:07 36.15474 150.63228 38323 ft 376 kts 253°
2026-05-05 13:07 36.13976 150.57036 38324 ft 376 kts 253°
2026-05-05 13:08 36.12474 150.50844 38326 ft 376 kts 253°
2026-05-05 13:08 36.10968 150.44653 38333 ft 376 kts 253°
2026-05-05 13:09 36.09461 150.38470 38329 ft 375 kts 253°
2026-05-05 13:09 36.07952 150.32298 38328 ft 375 kts 253°
2026-05-05 13:10 36.06442 150.26133 38331 ft 374 kts 253°
2026-05-05 13:10 36.04940 150.20019 38332 ft 374 kts 253°
2026-05-05 13:11 36.03426 150.13868 38334 ft 374 kts 253°
2026-05-05 13:11 36.01910 150.07722 38334 ft 374 kts 253°
2026-05-05 13:12 36.00395 150.01579 38334 ft 374 kts 254°
2026-05-05 13:12 35.99269 149.95315 38338 ft 374 kts 258°
2026-05-05 13:13 35.98316 149.89004 38336 ft 374 kts 258°
2026-05-05 13:13 35.97357 149.82694 38339 ft 374 kts 258°
2026-05-05 13:14 35.96392 149.76380 38337 ft 374 kts 258°
2026-05-05 13:14 35.95423 149.70073 38385 ft 374 kts 257°
2026-05-05 13:15 35.94451 149.63774 38348 ft 373 kts 257°
2026-05-05 13:15 35.93481 149.57512 38341 ft 371 kts 258°
2026-05-05 13:16 35.92512 149.51277 38344 ft 369 kts 257°
2026-05-05 13:16 35.91543 149.45067 38344 ft 368 kts 257°
2026-05-05 13:17 35.90573 149.38872 38345 ft 368 kts 257°
2026-05-05 13:17 35.89599 149.32678 38345 ft 368 kts 257°
2026-05-05 13:18 35.88622 149.26480 38348 ft 368 kts 257°
2026-05-05 13:18 35.87640 149.20274 38348 ft 369 kts 257°
2026-05-05 13:19 35.86653 149.14060 38345 ft 370 kts 257°
2026-05-05 13:19 35.85661 149.07834 38345 ft 370 kts 257°
2026-05-05 13:20 35.84672 149.01647 38339 ft 371 kts 257°
2026-05-05 13:20 35.83666 148.95374 38348 ft 371 kts 257°
2026-05-05 13:21 35.82669 148.89184 38348 ft 371 kts 257°
2026-05-05 13:21 35.81662 148.82952 38347 ft 371 kts 257°
2026-05-05 13:22 35.80652 148.76723 38347 ft 371 kts 257°
2026-05-05 13:22 35.79639 148.70495 38347 ft 371 kts 257°
2026-05-05 13:23 35.78624 148.64272 38348 ft 371 kts 257°
2026-05-05 13:23 35.77605 148.58053 38350 ft 371 kts 257°
2026-05-05 13:24 35.76582 148.51830 38350 ft 371 kts 257°
2026-05-05 13:24 35.75557 148.45611 38344 ft 371 kts 257°
2026-05-05 13:25 35.74528 148.39392 38354 ft 371 kts 257°
2026-05-05 13:25 35.73495 148.33173 38355 ft 371 kts 257°
2026-05-05 13:26 35.72458 148.26947 38356 ft 371 kts 257°
2026-05-05 13:26 35.71418 148.20725 38359 ft 371 kts 257°
2026-05-05 13:27 35.70374 148.14497 38357 ft 372 kts 257°
2026-05-05 13:27 35.69326 148.08268 38359 ft 372 kts 257°
2026-05-05 13:28 35.68274 148.02041 38359 ft 372 kts 257°
2026-05-05 13:28 35.67218 147.95804 38365 ft 373 kts 257°
2026-05-05 13:29 35.66157 147.89562 38353 ft 373 kts 257°
2026-05-05 13:29 35.65095 147.83332 38358 ft 372 kts 257°
2026-05-05 13:30 35.64030 147.77105 38358 ft 372 kts 257°
2026-05-05 13:30 35.62964 147.70890 38358 ft 372 kts 257°
2026-05-05 13:31 35.61894 147.64676 38347 ft 372 kts 257°
2026-05-05 13:31 35.60821 147.58465 38355 ft 372 kts 257°
2026-05-05 13:32 35.59744 147.52253 38362 ft 372 kts 257°
2026-05-05 13:32 35.58663 147.46030 38361 ft 372 kts 257°
2026-05-05 13:33 35.57584 147.39847 38360 ft 373 kts 257°
2026-05-05 13:33 35.56495 147.33620 38360 ft 373 kts 257°
2026-05-05 13:34 35.55400 147.27385 38360 ft 374 kts 257°
2026-05-05 13:34 35.54302 147.21146 38362 ft 374 kts 257°
2026-05-05 13:35 35.53199 147.14907 38362 ft 374 kts 257°
2026-05-05 13:35 35.52093 147.08663 38352 ft 374 kts 257°
2026-05-05 13:36 35.50984 147.02424 38359 ft 374 kts 257°
2026-05-05 13:36 35.49871 146.96183 38358 ft 374 kts 257°
2026-05-05 13:37 35.48754 146.89944 38359 ft 374 kts 257°
2026-05-05 13:37 35.47635 146.83708 38359 ft 374 kts 257°
2026-05-05 13:38 35.46513 146.77474 38359 ft 374 kts 257°
2026-05-05 13:38 35.45386 146.71236 38359 ft 374 kts 257°
2026-05-05 13:39 35.44257 146.65003 38358 ft 374 kts 257°
2026-05-05 13:39 35.43124 146.58769 38358 ft 375 kts 257°
2026-05-05 13:40 35.41989 146.52541 38361 ft 375 kts 257°
2026-05-05 13:40 35.40849 146.46308 38361 ft 375 kts 257°
2026-05-05 13:41 35.39707 146.40079 38362 ft 374 kts 257°
2026-05-05 13:41 35.38562 146.33856 38401 ft 375 kts 257°
2026-05-05 13:42 35.37412 146.27623 38364 ft 375 kts 257°
2026-05-05 13:42 35.36259 146.21393 38360 ft 375 kts 257°
2026-05-05 13:43 35.35103 146.15165 38361 ft 375 kts 257°
2026-05-05 13:43 35.33945 146.08941 38359 ft 375 kts 257°
2026-05-05 13:44 35.32797 146.02758 38352 ft 375 kts 258°
2026-05-05 13:44 35.32101 145.96424 38358 ft 376 kts 264°
2026-05-05 13:45 35.31895 145.90012 38356 ft 377 kts 265°
2026-05-05 13:45 35.31718 145.83592 38357 ft 377 kts 265°
2026-05-05 13:46 35.31532 145.77171 38358 ft 377 kts 265°
2026-05-05 13:46 35.31338 145.70747 38357 ft 378 kts 265°
2026-05-05 13:47 35.31172 145.65406 38355 ft 378 kts 265°
2026-05-05 13:47 35.30970 145.58985 38356 ft 378 kts 265°
2026-05-05 13:48 35.30763 145.52552 38356 ft 378 kts 265°
2026-05-05 13:48 35.30554 145.46123 38355 ft 378 kts 265°
2026-05-05 13:49 35.30340 145.39691 38365 ft 379 kts 265°
2026-05-05 13:49 35.30124 145.33247 38356 ft 379 kts 265°
2026-05-05 13:50 35.29903 145.26808 38353 ft 378 kts 265°
2026-05-05 13:50 35.29680 145.20374 38351 ft 378 kts 265°
2026-05-05 13:51 35.29454 145.13942 38354 ft 378 kts 265°
2026-05-05 13:51 35.29226 145.07549 38348 ft 378 kts 265°
2026-05-05 13:52 35.29085 145.01108 38348 ft 381 kts 270°
2026-05-05 13:52 35.29966 144.94668 38344 ft 386 kts 276°
2026-05-05 13:53 35.31577 144.88348 38347 ft 396 kts 286°
2026-05-05 13:53 35.33915 144.82233 38362 ft 397 kts 287°
2026-05-05 13:54 35.36274 144.76148 38338 ft 394 kts 287°
2026-05-05 13:54 35.38596 144.70081 38349 ft 392 kts 287°
2026-05-05 13:55 35.40887 144.64038 38353 ft 391 kts 286°
2026-05-05 13:55 35.43164 144.58002 38345 ft 390 kts 286°
2026-05-05 13:56 35.45437 144.51964 38348 ft 390 kts 286°
2026-05-05 13:56 35.47709 144.45914 38341 ft 391 kts 286°
2026-05-05 13:57 35.49983 144.39851 38347 ft 392 kts 286°
2026-05-05 13:57 35.52265 144.33754 38350 ft 394 kts 286°
2026-05-05 13:58 35.54551 144.27638 38406 ft 395 kts 286°
2026-05-05 13:58 35.56839 144.21506 38343 ft 395 kts 286°
2026-05-05 13:59 35.60255 144.12331 38346 ft 393 kts 286°
2026-05-05 14:00 35.63648 144.03188 38340 ft 391 kts 286°
2026-05-05 14:00 35.65884 143.97145 38386 ft 390 kts 286°
2026-05-05 14:01 35.68126 143.91074 38349 ft 389 kts 286°
2026-05-05 14:01 35.70358 143.85023 38337 ft 387 kts 286°
2026-05-05 14:02 35.72575 143.78998 38341 ft 386 kts 286°
2026-05-05 14:02 35.74786 143.72978 38324 ft 385 kts 286°
2026-05-05 14:03 35.76992 143.66959 38349 ft 386 kts 286°
2026-05-05 14:03 35.79197 143.60931 38341 ft 386 kts 286°
2026-05-05 14:04 35.81397 143.54895 38343 ft 386 kts 286°
2026-05-05 14:04 35.83592 143.48854 38339 ft 386 kts 286°
2026-05-05 14:05 35.85785 143.42804 38325 ft 387 kts 286°
2026-05-05 14:05 35.87976 143.36742 38343 ft 387 kts 285°
2026-05-05 14:06 35.90166 143.30676 38329 ft 387 kts 285°
2026-05-05 14:06 35.91768 143.24475 38342 ft 375 kts 274°
2026-05-05 14:07 35.92371 143.18139 38337 ft 375 kts 269°
2026-05-05 14:07 35.91976 143.11721 38340 ft 377 kts 262°
2026-05-05 14:08 35.91295 143.05278 38330 ft 380 kts 261°
2026-05-05 14:08 35.90619 142.98806 38356 ft 381 kts 262°
2026-05-05 14:09 35.89957 142.92329 38333 ft 380 kts 262°
2026-05-05 14:09 35.89302 142.85872 38323 ft 378 kts 262°
2026-05-05 14:10 35.88650 142.79457 38327 ft 376 kts 262°
2026-05-05 14:10 35.87998 142.73078 38331 ft 374 kts 262°
2026-05-05 14:11 35.87345 142.66721 38325 ft 373 kts 262°
2026-05-05 14:11 35.86690 142.60378 38326 ft 373 kts 262°
2026-05-05 14:12 35.86032 142.54042 38329 ft 373 kts 262°
2026-05-05 14:12 35.85370 142.47700 38326 ft 373 kts 261°
2026-05-05 14:13 35.84704 142.41354 38328 ft 374 kts 261°
2026-05-05 14:13 35.84033 142.34997 38324 ft 375 kts 261°
2026-05-05 14:14 35.83364 142.28677 38311 ft 366 kts 261°
2026-05-05 14:14 35.82708 142.22513 38356 ft 363 kts 261°
2026-05-05 14:15 35.82048 142.16357 38336 ft 366 kts 261°
2026-05-05 14:15 35.81380 142.10143 38321 ft 365 kts 261°
2026-05-05 14:16 35.80725 142.04077 37988 ft 351 kts 261°
2026-05-05 14:16 35.80403 142.01110 37439 ft 348 kts 261°
2026-05-05 14:16 35.80083 141.98156 36747 ft 348 kts 261°
2026-05-05 14:17 35.79760 141.95199 35998 ft 349 kts 261°
2026-05-05 14:17 35.79434 141.92221 35203 ft 353 kts 260°
2026-05-05 14:17 35.79109 141.89212 34346 ft 356 kts 260°
2026-05-05 14:17 35.78786 141.86168 33376 ft 360 kts 260°
2026-05-05 14:18 35.78459 141.83097 32439 ft 364 kts 261°
2026-05-05 14:18 35.78127 141.79992 31572 ft 367 kts 261°
2026-05-05 14:18 35.77805 141.76863 30821 ft 371 kts 263°
2026-05-05 14:18 35.77629 141.73653 30031 ft 381 kts 266°
2026-05-05 14:19 35.77571 141.70360 29207 ft 386 kts 266°
2026-05-05 14:19 35.77512 141.67060 28470 ft 384 kts 267°
2026-05-05 14:19 35.77451 141.63789 27759 ft 381 kts 267°
2026-05-05 14:19 35.77387 141.60545 27055 ft 378 kts 267°
2026-05-05 14:20 35.77321 141.57315 26379 ft 376 kts 267°
2026-05-05 14:20 35.77254 141.54097 25715 ft 375 kts 267°
2026-05-05 14:20 35.77186 141.50887 25044 ft 375 kts 267°
2026-05-05 14:20 35.77116 141.47672 24377 ft 376 kts 268°
2026-05-05 14:21 35.77043 141.44450 23660 ft 378 kts 268°
2026-05-05 14:21 35.76964 141.41210 22898 ft 379 kts 268°
2026-05-05 14:21 35.76884 141.38011 22206 ft 379 kts 268°
2026-05-05 14:21 35.76803 141.34769 21529 ft 379 kts 268°
2026-05-05 14:22 35.76721 141.31522 20861 ft 380 kts 267°
2026-05-05 14:22 35.76639 141.28271 20210 ft 381 kts 267°
2026-05-05 14:22 35.76556 141.25007 19554 ft 382 kts 267°
2026-05-05 14:22 35.76472 141.21736 18899 ft 383 kts 267°
2026-05-05 14:23 35.76404 141.18449 18170 ft 386 kts 269°
2026-05-05 14:23 35.76403 141.15144 17457 ft 386 kts 269°
2026-05-05 14:23 35.76418 141.11836 16768 ft 386 kts 269°
2026-05-05 14:23 35.76425 141.08534 16096 ft 385 kts 269°
2026-05-05 14:24 35.76423 141.05248 15540 ft 378 kts 269°
2026-05-05 14:24 35.76627 141.02176 15302 ft 345 kts 283°
2026-05-05 14:24 35.77483 140.99570 15085 ft 315 kts 297°
2026-05-05 14:24 35.78534 140.97322 14755 ft 293 kts 298°
2026-05-05 14:25 35.79549 140.95189 14130 ft 284 kts 298°
2026-05-05 14:25 35.80535 140.93118 13458 ft 277 kts 297°
2026-05-05 14:25 35.81497 140.91086 12657 ft 274 kts 297°
2026-05-05 14:25 35.82458 140.89045 11785 ft 277 kts 297°
2026-05-05 14:26 35.83434 140.86964 11175 ft 283 kts 297°
2026-05-05 14:26 35.84418 140.84860 10869 ft 282 kts 297°
2026-05-05 14:26 35.85391 140.82778 10623 ft 278 kts 297°
2026-05-05 14:26 35.86345 140.80737 10481 ft 270 kts 297°
2026-05-05 14:27 35.87262 140.78771 10377 ft 260 kts 297°
2026-05-05 14:27 35.88136 140.76896 10266 ft 251 kts 296°
2026-05-05 14:27 35.88994 140.75053 10057 ft 246 kts 296°
2026-05-05 14:27 35.89840 140.73229 9722 ft 245 kts 296°
2026-05-05 14:28 35.90684 140.71410 9418 ft 243 kts 296°
2026-05-05 14:28 35.91522 140.69602 9095 ft 242 kts 297°
2026-05-05 14:28 35.92355 140.67804 8789 ft 241 kts 297°
2026-05-05 14:28 35.93185 140.66013 8503 ft 239 kts 296°
2026-05-05 14:29 35.94004 140.64246 8241 ft 236 kts 297°
2026-05-05 14:29 35.94823 140.62476 7880 ft 238 kts 297°
2026-05-05 14:29 35.95644 140.60703 7592 ft 237 kts 297°
2026-05-05 14:29 35.96456 140.58948 7322 ft 235 kts 297°
2026-05-05 14:30 35.97266 140.57197 7019 ft 234 kts 297°
2026-05-05 14:30 35.98055 140.55453 6735 ft 230 kts 292°
2026-05-05 14:30 35.98325 140.53553 6253 ft 226 kts 264°
2026-05-05 14:30 35.98190 140.51616 5866 ft 228 kts 264°
2026-05-05 14:31 35.98083 140.49670 5607 ft 226 kts 264°
2026-05-05 14:31 35.97982 140.47763 5456 ft 217 kts 264°
2026-05-05 14:31 35.97887 140.45960 5442 ft 204 kts 264°
2026-05-05 14:31 35.97796 140.44253 5427 ft 200 kts 264°
2026-05-05 14:32 35.97703 140.42544 5435 ft 198 kts 264°
2026-05-05 14:32 35.97612 140.40853 5413 ft 197 kts 263°
2026-05-05 14:32 35.97519 140.39154 5296 ft 201 kts 264°
2026-05-05 14:32 35.97426 140.37424 5024 ft 202 kts 263°
2026-05-05 14:33 35.97333 140.35699 4765 ft 200 kts 263°
2026-05-05 14:33 35.97241 140.34002 4507 ft 196 kts 263°
2026-05-05 14:33 35.97151 140.32340 4258 ft 191 kts 262°
2026-05-05 14:33 35.97063 140.30726 4185 ft 187 kts 262°
2026-05-05 14:34 35.96976 140.29140 4102 ft 184 kts 262°
2026-05-05 14:34 35.96728 140.27670 4009 ft 167 kts 238°
2026-05-05 14:34 35.96016 140.26585 3953 ft 159 kts 220°
2026-05-05 14:34 35.95130 140.25871 3850 ft 146 kts 207°
2026-05-05 14:35 35.94160 140.25642 3660 ft 145 kts 164°
2026-05-05 14:35 35.93241 140.26191 3639 ft 148 kts 163°
2026-05-05 14:35 35.92285 140.26613 3421 ft 144 kts 162°
2026-05-05 14:35 35.91386 140.27119 3266 ft 140 kts 159°
2026-05-05 14:36 35.90536 140.27616 3116 ft 132 kts 162°
2026-05-05 14:36 35.89679 140.28076 2937 ft 136 kts 159°
2026-05-05 14:36 35.88838 140.28599 2757 ft 134 kts 156°
2026-05-05 14:36 35.88031 140.29151 2562 ft 132 kts 155°
2026-05-05 14:37 35.87238 140.29713 2385 ft 131 kts 155°
2026-05-05 14:37 35.86456 140.30276 2211 ft 129 kts 154°
2026-05-05 14:37 35.85682 140.30837 2037 ft 129 kts 154°
2026-05-05 14:37 35.85168 140.31210 1900 ft 130 kts 154°
2026-05-05 14:38 35.84396 140.31807 1681 ft 134 kts 150°
2026-05-05 14:38 35.83619 140.32422 1444 ft 130 kts 153°
2026-05-05 14:38 35.82838 140.32988 1307 ft 131 kts 154°
2026-05-05 14:38 35.82053 140.33556 1155 ft 132 kts 153°
2026-05-05 14:39 35.81259 140.34124 946 ft 131 kts 149°
2026-05-05 14:39 35.80481 140.34746 783 ft 137 kts 152°
2026-05-05 14:39 35.79623 140.35290 637 ft 140 kts 153°
2026-05-05 14:39 35.78770 140.35883 479 ft 141 kts 151°
2026-05-05 14:40 35.77925 140.36492 316 ft 140 kts 150°
2026-05-05 14:40 35.77087 140.37097 170 ft 140 kts 151°
2026-05-05 14:40 35.76293 140.37664 143 ft 120 kts 149°
2026-05-05 14:40 35.75700 140.38089 147 ft 65 kts 150°
2026-05-05 14:41 35.75532 140.38273 146 ft 20 kts 119°
2026-05-05 14:41 35.75479 140.38387 148 ft 9 kts 120°
2026-05-05 14:41 35.75457 140.38436 149 ft 6 kts 118°
2026-05-05 14:41 35.75459 140.38488 150 ft 6 kts 69°
2026-05-05 14:42 35.75478 140.38539 150 ft 7 kts 65°
2026-05-05 14:42 35.75509 140.38582 151 ft 7 kts 30°
2026-05-05 14:42 35.75554 140.38576 151 ft 7 kts 330°
2026-05-05 14:42 35.75600 140.38543 151 ft 8 kts 329°
2026-05-05 14:43 35.75652 140.38505 151 ft 9 kts 329°
2026-05-05 14:43 35.75710 140.38467 151 ft 10 kts 343°
2026-05-05 14:43 35.75773 140.38495 151 ft 11 kts 20°
2026-05-05 14:43 35.75846 140.38481 151 ft 11 kts 340°
2026-05-05 14:44 35.75916 140.38433 151 ft 12 kts 330°
2026-05-05 14:44 35.75973 140.38391 151 ft 3 kts 329°
2026-05-05 14:44 35.75998 140.38374 151 ft 5 kts 339°
2026-05-05 14:44 35.76029 140.38384 151 ft 5 kts 34°
2026-05-05 14:45 35.76054 140.38421 151 ft 6 kts 56°
2026-05-05 14:45 35.76069 140.38450 151 ft 2 kts 59°